Location: Betra
(48.4113°N, 8.6634°E)
Time: 23:19:36
(UTC+00:00)

Resurs 1-4 Rocket - Pass Details

Date: 13 August 2024
Orbit: 798 x 813 km, 98.7° (Epoch: 07 September)

Event Time Altitude Azimuth Distance (km) Brightness Sun altitude
Rises 01:18:40 0° 17° (NNE) 3,344 6.7 -22.6°
Reaches altitude 10° 01:21:03 10° 20° (NNE) 2,406 5.7 -22.4°
Maximum altitude 01:26:21 64° 102° (ESE) 892 2.3 -21.9°
Enters shadow 01:28:14 39° 169° (SSE) 1,199 2.6 -21.8°
